Flag for U.S.A. Weather past 2 weeks in Washington DC, District of Columbia, U.S.A.

53 °F

Passing clouds.

Feels Like: 53 °F
Forecast: 40 / 65 °F
Wind: No wind

Location: Reagan National Airport

Current Time: Nov 26, 2015 at 8:36:25 PM

Latest Report: Nov 26, 2015 at 7:52 PM

Visibility: 10 mi

Pressure: 30.66 "Hg

Humidity: 74%

Dew point: 45 °F

Location of Washington DCLocation

Historic Weather in Washington DC — Graph


Washington DC temperature yesterday

Maximum temperature yesterday: 57 °F (at 1:52 PM)
Minimum temperature yesterday: 37 °F (at 6:52 AM)
Average temperature yesterday: 46 °F

Past Weeks' High & Low Weather Summary

High69 °F (Nov 16, 2:52 PM)100% (Nov 19, 3:59 PM)30.80 "Hg (Nov 19, 3:59 PM)
Low32 °F (Nov 23, 6:52 AM)20% (Nov 13, 8:52 PM)29.59 "Hg (Nov 12, 4:52 PM)
Average51 °F59%30.23 "Hg
* Reported Nov 11 6:52 PM — Nov 26 6:52 PM, Washington DC, Weather by CustomWeather, © 2015

Note: Actual official high and low records may vary slightly from our data, if they occured in-between our weather recording intervals... More about our weather records


Washington DC weather history for previous 24 hours

Time TempWeatherWind HumidityBarometerVisibility
6:52 PM
Thu, Nov 26
54 °FPassing clouds.No wind72%30.67 "Hg10 mi
5:52 PM54 °FPassing clouds.3 mph72%30.66 "Hg10 mi
4:52 PM59 °FPassing clouds.3 mph60%30.67 "Hg10 mi
3:52 PM61 °FPartly sunny.5 mph58%30.68 "Hg10 mi
2:52 PM62 °FScattered clouds.3 mph54%30.68 "Hg10 mi
1:52 PM62 °FPartly sunny.No wind54%30.71 "Hg10 mi
12:52 PM60 °FScattered clouds.6 mph58%30.73 "Hg10 mi
11:52 AM56 °FScattered clouds.5 mph67%30.77 "Hg10 mi
10:52 AM52 °FScattered clouds.5 mph75%30.79 "Hg9 mi
9:52 AM51 °FPartly sunny.No wind71%30.80 "Hg9 mi
8:52 AM46 °FPartly sunny.3 mph79%30.80 "Hg8 mi
7:52 AM44 °FPartly sunny.3 mph82%30.80 "Hg10 mi
6:52 AM42 °FPassing clouds.5 mph89%30.79 "Hg10 mi
5:52 AM42 °FPassing clouds.No wind85%30.79 "Hg10 mi
4:52 AM42 °FOvercast.7 mph85%30.77 "Hg10 mi
3:52 AM41 °FClear.No wind86%30.76 "Hg10 mi
2:52 AM42 °FClear.5 mph82%30.76 "Hg10 mi
1:52 AM42 °FClear.5 mph82%30.77 "Hg10 mi
12:52 AM44 °FClear.3 mph82%30.77 "Hg10 mi
11:52 PM
Wed, Nov 25
45 °FClear.No wind74%30.76 "Hg10 mi
10:52 PM46 °FClear.3 mph71%30.75 "Hg10 mi
9:52 PM47 °FClear.8 mph69%30.73 "Hg10 mi
8:52 PM47 °FClear.8 mph66%30.75 "Hg10 mi
Weather by CustomWeather, © 2015

See weather overviewHow to use our weather pages